TimePDT,TemperatureF,Dew PointF,Humidity,Sea Level PressureIn,VisibilityMPH,Wind Direction,Wind SpeedMPH,Gust SpeedMPH,PrecipitationIn,Events,Conditions,WindDirDegrees,DateUTC
12:15 AM,55.4,41.0,58,30.21,10.0,Calm,Calm,-,N/A,,Clear,0,2013-07-20 07:15:00
12:35 AM,51.8,39.2,62,30.21,10.0,South,4.6,-,N/A,,Clear,180,2013-07-20 07:35:00
12:55 AM,55.4,41.0,58,30.20,10.0,Calm,Calm,-,N/A,,Clear,0,2013-07-20 07:55:00
1:15 AM,55.4,39.2,54,30.20,10.0,Calm,Calm,-,N/A,,Clear,0,2013-07-20 08:15:00
1:35 AM,55.4,39.2,54,30.21,10.0,Calm,Calm,-,N/A,,Clear,0,2013-07-20 08:35:00
1:55 AM,50.0,39.2,66,30.20,10.0,SSE,5.8,-,N/A,,Clear,150,2013-07-20 08:55:00
2:15 AM,50.0,39.2,66,30.20,10.0,Calm,Calm,-,N/A,,Clear,0,2013-07-20 09:15:00
2:35 AM,53.6,39.2,58,30.20,10.0,Calm,Calm,-,N/A,,Clear,0,2013-07-20 09:35:00
2:55 AM,51.8,41.0,67,30.20,10.0,Calm,Calm,-,N/A,,Clear,0,2013-07-20 09:55:00
3:15 AM,48.2,41.0,76,30.20,10.0,Calm,Calm,-,N/A,,Clear,0,2013-07-20 10:15:00
3:35 AM,48.2,39.2,71,30.20,10.0,Calm,Calm,-,N/A,,Clear,0,2013-07-20 10:35:00
3:55 AM,48.2,39.2,71,30.20,10.0,South,3.5,-,N/A,,Clear,170,2013-07-20 10:55:00
4:15 AM,50.0,39.2,66,30.19,10.0,Calm,Calm,-,N/A,,Clear,0,2013-07-20 11:15:00
4:35 AM,46.4,39.2,76,30.19,10.0,South,3.5,-,N/A,,Clear,190,2013-07-20 11:35:00
4:55 AM,48.2,39.2,71,30.19,10.0,Calm,Calm,-,N/A,,Clear,0,2013-07-20 11:55:00
5:15 AM,46.4,39.2,76,30.19,10.0,Calm,Calm,-,N/A,,Clear,0,2013-07-20 12:15:00
5:35 AM,46.4,39.2,76,30.19,10.0,Calm,Calm,-,N/A,,Clear,0,2013-07-20 12:35:00
5:55 AM,48.2,41.0,76,30.19,10.0,South,3.5,-,N/A,,Clear,180,2013-07-20 12:55:00
6:15 AM,46.4,39.2,76,30.19,10.0,Calm,Calm,-,N/A,,Clear,0,2013-07-20 13:15:00
6:35 AM,46.4,39.2,76,30.20,10.0,Calm,Calm,-,N/A,,Clear,0,2013-07-20 13:35:00
6:45 AM,48.2,39.2,71,30.20,10.0,Calm,Calm,-,N/A,,Clear,0,2013-07-20 13:45:00
7:55 AM,57.2,39.2,51,30.20,10.0,Calm,Calm,-,N/A,,Clear,0,2013-07-20 14:55:00
8:55 AM,66.2,41.0,40,30.20,10.0,Calm,Calm,-,N/A,,Clear,0,2013-07-20 15:55:00
10:55 AM,82.4,41.0,23,30.17,10.0,NNE,3.5,-,N/A,,Clear,20,2013-07-20 17:55:00
11:55 AM,87.8,39.2,18,30.15,10.0,Calm,Calm,-,N/A,,Partly Cloudy,0,2013-07-20 18:55:00
12:50 PM,91.4,35.6,14,30.14,10.0,Calm,Calm,-,N/A,,Partly Cloudy,0,2013-07-20 19:50:00
1:50 PM,91.4,32.0,12,30.12,10.0,West,3.5,-,N/A,,Partly Cloudy,270,2013-07-20 20:50:00
2:45 PM,93.2,32.0,11,30.11,10.0,SSW,6.9,18.4,N/A,,Scattered Clouds,200,2013-07-20 21:45:00
3:50 PM,84.2,46.4,27,30.00,10.0,ESE,13.8,33.4,N/A,,Scattered Clouds,110,2013-07-20 22:50:00
4:50 PM,91.4,44.6,20,30.09,10.0,NW,10.4,-,N/A,,Scattered Clouds,310,2013-07-20 23:50:00
5:45 PM,87.8,39.2,18,30.10,10.0,NE,6.9,-,N/A,,Scattered Clouds,40,2013-07-21 00:45:00
5:55 PM,87.8,39.2,18,30.10,10.0,NNE,13.8,17.3,N/A,,Clear,20,2013-07-21 00:55:00
6:15 PM,87.8,39.2,18,30.09,10.0,NE,5.8,-,N/A,,Clear,40,2013-07-21 01:15:00
6:35 PM,87.8,37.4,17,30.09,10.0,Calm,Calm,-,N/A,,Clear,0,2013-07-21 01:35:00
6:55 PM,87.8,37.4,17,30.09,10.0,NNW,3.5,-,N/A,,Clear,340,2013-07-21 01:55:00
7:15 PM,86.0,48.2,27,30.10,10.0,West,10.4,-,N/A,,Clear,280,2013-07-21 02:15:00
7:35 PM,84.2,48.2,29,30.10,10.0,West,10.4,-,N/A,,Clear,270,2013-07-21 02:35:00
7:55 PM,82.4,50.0,32,30.10,10.0,West,9.2,-,N/A,,Clear,280,2013-07-21 02:55:00
8:15 PM,80.6,50.0,34,30.10,10.0,WSW,5.8,-,N/A,,Clear,250,2013-07-21 03:15:00
8:35 PM,77.0,48.2,36,30.11,10.0,NNW,4.6,-,N/A,,Clear,330,2013-07-21 03:35:00
8:55 PM,73.4,50.0,44,30.12,10.0,NNE,5.8,-,N/A,,Clear,20,2013-07-21 03:55:00
9:15 PM,71.6,51.8,50,30.12,10.0,West,4.6,-,N/A,,Clear,260,2013-07-21 04:15:00
9:35 PM,66.2,50.0,56,30.13,10.0,South,4.6,-,N/A,,Clear,180,2013-07-21 04:35:00
9:55 PM,68.0,50.0,52,30.14,10.0,SE,6.9,-,N/A,,Clear,140,2013-07-21 04:55:00
10:15 PM,64.4,50.0,59,30.14,10.0,Calm,Calm,-,N/A,,Clear,0,2013-07-21 05:15:00
10:35 PM,64.4,50.0,59,30.14,10.0,South,4.6,-,N/A,,Clear,190,2013-07-21 05:35:00
10:55 PM,60.8,48.2,63,30.14,10.0,Calm,Calm,-,N/A,,Clear,0,2013-07-21 05:55:00
11:15 PM,64.4,48.2,56,30.14,10.0,SE,6.9,-,N/A,,Clear,140,2013-07-21 06:15:00
11:35 PM,59.0,48.2,67,30.14,10.0,WSW,3.5,-,N/A,,Clear,240,2013-07-21 06:35:00
11:55 PM,60.8,48.2,63,30.14,10.0,Calm,Calm,-,N/A,,Clear,0,2013-07-21 06:55:00